YAOGAN-32 A

导读

YAOGAN-32 A(遥感三十二号A卫星)是中国研制发射的遥感卫星,于2018年10月9日在酒泉卫星发射中心,由长征二号丙运载火箭搭配远征一号S上面级送入预定轨道。该卫星属于中国Yaogan遥感星座,运行于低地轨道,主要可用于开展地球遥感观测,服务国土资源勘查、防灾减灾、农业估产、城市规划等多个领域,为中国经济社会发展提供空间信息支撑,目前卫星仍保持在轨运行状态。

Basic Information
目录编号:
43642
目录名称:
YAOGAN-32 A
国际标识:
2018-077A
轨道中心:
EARTH
卫星名称:
YAOGAN-32 A
卫星全名:
--
卫星状态:
在轨 (已飞行2835 天)
发射日期:
2018-10-09 UTC
国别 :
中国 (CN)
星等 :
--
Orbit Information
数据来源 国际轨道数据 AOE轨道数据
星历时间 2026-07-14T04:41:03+0800
9小时前
查看轨道信息
2026-07-11T16:00:00+0800
2天前
查看轨道信息
半长轴 7060.975km 7060.979km
偏心率 0.0001922 0.0002013
轨道倾角 98.147° 98.148°
近地点辐角 85.836° 92.205°
升交点赤经 223.084° 220.586°
平近点角 274.306° 276.861°
近地点 681.48km 681.42km
远地点 684.196km 684.264km
周期 98.414分钟 98.414分钟
每日圈数 14.63207 14.632057
Detailed Information
使用方式:
暂无
2D Orbit Map
3D Orbit Map
Orbit Altitude Analysis Chart
Orbit Inclination Analysis Chart
Orbit Comprehensive Analysis Chart
View Comprehensive Chart